Regional Weather Roundup
Issued by NWS

Home | Current Version | Previous Version | Graphics & Text | Print | Product List | Glossary On
Versions: 1 2 3 4 5 6 7 8 9 10 11 12 13 14 15 16 17 18 19 20 21 22 23 24 25 26 27 28 29 30 31 32 33 34 35 36 37 38 39 40 41 42 43 44 45 46 47 48 49 50
000
ASUS43 KMKX 191911
RWRWI

WISCONSIN REGIONAL WEATHER ROUNDUP
NATIONAL WEATHER SERVICE MILWAUKEE/SULLIVAN WI
200 PM CDT SAT AUG 19 2017

NOTE: "FAIR" INDICATES FEW OR NO CLOUDS BELOW 12,000 FEET WITH NO
SIGNIFICANT WEATHER AND/OR OBSTRUCTIONS TO VISIBILITY.

WIZ001-002-006>008-014>016-023>028-192000-
NORTHWEST WISCONSIN

CITY           SKY/WX    TMP DP  RH WIND       PRES   REMARKS
SUPERIOR ARPT    N/A     80  61  51 W6        29.87S HX  81
ASHLAND        MOSUNNY   81  61  50 W10       29.88F HX  82
HAYWARD        MOSUNNY   77  58  51 VRB6      29.92F
SIREN          MOSUNNY   78  59  52 W12       29.93S
CUMBERLAND     MOSUNNY   73  55  53 SW9       29.94S
RICE LAKE      MOSUNNY   75  61  60 SW6       29.95S
CHETEK         MOSUNNY   77  61  56 W5        29.94S
LADYSMITH      SUNNY     78  60  54 SW10      29.95S
EAU CLAIRE     MOSUNNY   78  58  49 W9        29.93F
MENOMONIE      MOSUNNY   78  59  52 SW9       29.94S
NEW RICHMOND   SUNNY     77  59  52 W8        29.94F
OSCEOLA        MOSUNNY   78  60  54 SW9       29.96S HX  80
$$

WIZ003>005-009-010-017-018-192000-
NORTH CENTRAL WISCONSIN

CITY           SKY/WX    TMP DP  RH WIND       PRES   REMARKS
MANITOWISH WTR PTSUNNY   76  58  53 NW8       29.91S
ARBOR VITAE    MOSUNNY   79  59  50 W10       29.92S HX  80
WOODRUFF       MOSUNNY   79  59  50 W10       29.92S HX  80
RHINELANDER    SUNNY     77  57  50 W12       29.93S
EAGLE RIVER    MOSUNNY   78  57  48 W9G16     29.91S
LAND O LAKES   MOSUNNY   76  56  49 W8        29.93R
PHILLIPS       PTSUNNY   76  60  57 SW8       29.92F
TOMAHAWK         N/A     77  58  51 W5        29.94S
MEDFORD        MOSUNNY   75  60  60 W8        29.95S
MERRILL        MOSUNNY   79  61  53 W8        29.94S HX  80
$$

WIZ029-030-035-036-043>047-192000-
CENTRAL WISCONSIN

CITY           SKY/WX    TMP DP  RH WIND       PRES   REMARKS
WAUSAU         MOSUNNY   78  59  51 W10       29.92F
MOSINEE        MOSUNNY   77  59  53 W8G16     29.96S
MARSHFIELD     SUNNY     79  56  45 W10       29.95S HX  80
STEVENS POINT  SUNNY     76  57  51 W10       29.95S
WAUPACA        SUNNY     82  58  43 W10       29.93F HX  82
WAUTOMA        MOSUNNY   81  60  48 W10       29.94F HX  82
WISC RAPIDS    MOSUNNY   81  60  48 W12       29.96S HX  82
CAMP DOUGLAS   MOSUNNY   79  59  50 W8        29.95F HX  80
$$

WIZ011>013-019>022-031-037>040-048>050-192000-
NORTHEAST WISCONSIN

CITY           SKY/WX    TMP DP  RH WIND       PRES   REMARKS
ANTIGO         MOSUNNY   76  59  55 W10       29.94S
SHAWANO        SUNNY     82  57  43 W9G16     29.91S HX  81
OCONTO         MOSUNNY   80  60  50 W9G16     29.88F HX  81
STURGEON BAY   SUNNY     77  63  61 W14       29.90S
GREEN BAY      SUNNY     80  62  54 W13       29.91S HX  81
MANITOWOC      SUNNY     79  60  52 W9        29.92S HX  80
APPLETON       MOSUNNY   79  54  41 W12G17    29.92F
CLINTONVILLE   SUNNY     81  54  39 W9        29.91F HX  80
OSHKOSH        MOSUNNY   79  61  53 W6        29.93S HX  80
$$

WIZ032>034-041-042-053>061-192000-
SOUTHWEST WISCONSIN

CITY           SKY/WX    TMP DP  RH WIND       PRES   REMARKS
LA CROSSE      SUNNY     82  58  43 W8        29.95F HX  82
SPARTA         SUNNY     77  57  50 W6        29.97S
VIROQUA        SUNNY     76  63  64 W6        29.98F
BOSCOBEL       SUNNY     82  57  42 NW6       29.96F HX  82
PRAIRIE DU CHI SUNNY     78  56  46 W3        29.96F
PLATTEVILLE    SUNNY     77  63  60 SW3       29.99S
$$

WIZ056-057-062-063-064-067-068-192000-
SOUTH CENTRAL WISCONSIN

CITY           SKY/WX    TMP DP  RH WIND       PRES   REMARKS
REEDSBURG      MOSUNNY   80  60  51 W8        29.96S HX  81
BARABOO/DELLS  MOSUNNY   80  57  45 W7        29.96F HX  80
LONE ROCK      SUNNY     80  59  48 VRB3      29.96S HX  81
MINERAL POINT  MOSUNNY   79  59  50 NW3       29.98S HX  80
MADISON        MOSUNNY   79  60  52 VRB5      29.96F HX  80
MIDDLETON      SUNNY     80  59  49 CALM      29.97F HX  81
WATERTOWN      MOSUNNY   77  64  65 SW5       29.96F
MONROE         SUNNY     77  57  50 CALM      29.98S
JANESVILLE     MOSUNNY   79  59  50 CALM      29.97  HX  80
$$

WIZ051-052-058>065-066-070>072-192000-
SOUTHEAST WISCONSIN

CITY           SKY/WX    TMP DP  RH WIND       PRES   REMARKS
MILWAUKEE      MOSUNNY   83  60  45 VRB7      29.95S HX  83
WAUKESHA       MOSUNNY   75  61  60 W10G17    29.98S
MILWAUKEE/TIMM MOSUNNY   77  59  53 SW7       29.96F
RACINE         SUNNY     80  60  50 CALM      29.97S HX  81
KENOSHA        SUNNY     79  58  48 SW5       29.96F HX  80
FOND DU LAC    MOSUNNY   80  62  54 VRB6      29.94S HX  81
SHEBOYGAN      SUNNY     79  62  56 W7        29.93S HX  80
WEST BEND      MOSUNNY   77  57  50 W7        29.95S
JUNEAU         MOSUNNY   76  61  58 W5        29.96F
$$

LSZ147-162-192000-
LAKE SUPERIOR

STATION/POSITION TIME  TEMP    WIND        PRES    WAVE
                       AIR SEA DIR/SP/G            HT/PER
                 (UTC) (F)     (DEG/KT/KT) (MB)    (FT/S)
W MID LAKE BUOY  1850   61 60  240/ 12/ 14 1010.4F   2/ 5
DEVILS ISLAND    1900   67     230/ 13/ 15 1010.9F
PORT WING        1745   84     280/  7/ 10 1012.2
SAXON HARBOR     1830   78     290/  9/ 11 1011.5S
$$

LMZ867-665-643>646-192000-
LAKE MICHIGAN

STATION/POSITION TIME  TEMP    WIND        PRES    WAVE
                       AIR SEA DIR/SP/G            HT/PER
                 (UTC) (F)     (DEG/KT/KT) (MB)    (FT/S)
S GREEN BAY BUOY 1900   74     240/  6/  8 1012.1
N MID LAKE BUOY  1850   67 67  220/ 10/ 12 1012.2F   1/ 3
NORTHPORT PIER   1840   77     230/  4/  8 1011.5S
KEWAUNEE LAKESHO 1842   78     300/  6/  9 1011.8F
SHEBOYGAN LAKESH 1900   77     260/  7/  9 1013.0S
PORT WASHINGTON  1830   74     150/  8/ 11 1014.6S
ATWATER BUOY     1839   72 71  150/ 10/ 12 1014.4S
MILWAUKEE LAKESH 1850   71     140/ 10/ 12   N/A
S MID LAKE BUOY  1850   69 72  260/  6/  6 1014.7R   1/ 5
KENOSHA   LAKESH 1900   73     160/  9/ 11 1014.2
$$

TC  - TEMPERATURE IN CELSIUS
VSB - VISIBILITY IN STATUTE MILES
WCI - WIND CHILL INDEX
HX  - HEAT INDEX




USA.gov is the U.S. government's official web portal to all federal, state and local government web resources and services.